Location: Burbank
(38.7788°N, 114.0429°W)
Time: 01:54:46
(UTC+00:00)

Tiros 1 despin weight - Pass Details

Date: 16 May 2026
Orbit: 554 x 591 km, 48.2° (Epoch: 6 June)

Event Time Altitude Azimuth Distance (km) Brightness Sun altitude
Rises 13:40:30 0° 272° (W) 2,752 ? 13.4°
Reaches altitude 10° 13:43:00 10° 283° (WNW) 1,850 ? 13.8°
Maximum altitude 13:46:42 29° 345° (NNW) 1,046 ? 14.5°
Drops below altitude 10° 13:50:23 10° 46° (NE) 1,840 ? 15.2°
Sets 13:52:52 0° 58° (ENE) 2,732 ? 15.7°
